Location: Dürabuch
(48.2640°N, 11.2185°E)
Time: 13:53:16
(UTC+00:00)

CZ-2D R/B - Visible Passes

Search period start: 21 May 2025 00:00
Search period end: 31 May 2025 00:00
Orbit: 790 x 841 km, 98.8° (Epoch: 21 May)

Date Brightness Start Highest point End Pass type
(mag) Time Alt. Az. Time Alt. Az. Time Alt. Az.
21 May 3.1 01:09:39 10° NNE 01:14:53 44° E 01:19:22 14° SSE visible
22 May 3.7 00:47:55 10° NE 00:52:40 29° E 00:57:06 11° SSE visible
22 May 2.7 02:27:35 10° N 02:32:49 47° WNW 02:38:02 10° SW visible
23 May 4.2 00:26:28 10° NE 00:30:23 20° E 00:34:16 10° SE visible
23 May 2.3 02:05:25 10° N 02:10:52 70° WNW 02:16:05 11° SSW visible
24 May 4.5 00:05:38 10° ENE 00:08:01 13° E 00:10:22 10° ESE visible
24 May 2.3 01:43:20 10° NNE 01:48:51 81° ESE 01:53:48 13° SSW visible
25 May 2.7 01:21:22 10° NNE 01:26:44 54° E 01:31:31 13° S visible
26 May 3.4 00:59:32 10° NNE 01:04:34 36° E 01:09:13 12° SSE visible
26 May 2.9 02:39:30 10° N 02:44:34 39° WNW 02:49:34 10° SW visible
27 May 3.9 00:37:55 10° NE 00:42:19 24° E 00:46:41 10° SE visible
27 May 2.5 02:17:16 10° N 02:22:38 57° WNW 02:27:57 10° SW visible
28 May 4.4 00:16:40 10° NE 00:20:00 16° E 00:23:16 10° SE visible
28 May 2.2 01:55:08 10° NNE 02:00:39 84° WNW 02:05:54 11° SSW visible
29 May 2.5 01:33:06 10° NNE 01:38:35 67° ESE 01:43:36 12° S visible
30 May 3.0 01:11:12 10° NNE 01:16:27 44° E 01:21:19 12° S visible
